When you browse on this site, cookies collect data to enhance your experience and personalize the content and advertising you see.
Visit our Privacy Policy to learn more. By continuing to use the site, you agree to this use of cookies and data.
  • In Hungary
  • List of Countries
  • For 7 days
  • Water Temperature
  • Weather Map
  • News
  • Weather Widgets
  • user-avatar
    Login

    Hourly Weather Melihovo

    Today, 26 February, Wednesday

    Time Temperature Precipitation Wind Pressure Humidity
    00:00 -3°C° 0 mm 4 mps 730 mmHg 85%
    01:00 -2°C° 0 mm 5 mps 729 mmHg 89%
    02:00 -2°C° 0 mm 5 mps 729 mmHg 96%
    03:00 -2°C° 0 mm 5 mps 728 mmHg 96%
    04:00 -2°C° 0 mm 5 mps 728 mmHg 95%
    05:00 -2°C° 0 mm 5 mps 727 mmHg 95%
    06:00 -2°C° 0.2 mm 5 mps 727 mmHg 95%
    07:00 -3°C° 0.2 mm 6 mps 726 mmHg 95%
    08:00 -2°C° 0.2 mm 6 mps 726 mmHg 96%
    09:00 -2°C° 0.7 mm 6 mps 726 mmHg 96%
    10:00 -2°C° 0.7 mm 6 mps 725 mmHg 96%
    11:00 -2°C° 0.7 mm 7 mps 725 mmHg 97%
    12:00 -2°C° 0.2 mm 6 mps 725 mmHg 96%
    13:00 -1°C° 0.2 mm 6 mps 725 mmHg 96%
    14:00 0°C° 0.2 mm 5 mps 725 mmHg 96%
    15:00 0°C° 0.1 mm 5 mps 725 mmHg 96%
    16:00 0°C° 0.1 mm 5 mps 724 mmHg 96%
    17:00 0°C° 0.1 mm 5 mps 724 mmHg 95%
    18:00 0°C° 0 mm 4 mps 725 mmHg 96%
    19:00 0°C° 0 mm 4 mps 725 mmHg 96%
    20:00 +1°C° 0 mm 3 mps 725 mmHg 97%
    21:00 +1°C° 0.1 mm 3 mps 725 mmHg 96%
    22:00 +1°C° 0.1 mm 3 mps 724 mmHg 96%
    23:00 +1°C° 0.1 mm 3 mps 724 mmHg 96%

    Tomorrow, 27 February, Thursday

    Time Temperature Precipitation Wind Pressure Humidity
    00:00 +1°C° 0.1 mm 3 mps 724 mmHg 96%
    01:00 +1°C° 0.1 mm 3 mps 724 mmHg 96%
    02:00 0°C° 0.1 mm 4 mps 724 mmHg 96%
    03:00 0°C° 0.1 mm 4 mps 723 mmHg 96%
    04:00 0°C° 0.1 mm 5 mps 723 mmHg 96%
    05:00 0°C° 0.1 mm 5 mps 722 mmHg 96%
    06:00 -1°C° 0 mm 6 mps 722 mmHg 96%
    07:00 -1°C° 0 mm 6 mps 722 mmHg 96%
    08:00 -1°C° 0 mm 6 mps 722 mmHg 96%
    09:00 -1°C° 0 mm 6 mps 722 mmHg 96%
    10:00 +1°C° 0 mm 6 mps 722 mmHg 97%
    11:00 +1°C° 0 mm 5 mps 722 mmHg 97%
    12:00 +1°C° 0.1 mm 5 mps 722 mmHg 96%
    13:00 +2°C° 0.1 mm 5 mps 722 mmHg 96%
    14:00 +3°C° 0.1 mm 4 mps 723 mmHg 95%
    15:00 +3°C° 0.3 mm 4 mps 723 mmHg 95%
    16:00 +2°C° 0.3 mm 3 mps 723 mmHg 96%
    17:00 +2°C° 0.3 mm 3 mps 723 mmHg 96%
    18:00 +2°C° 0 mm 3 mps 723 mmHg 94%
    19:00 +2°C° 0 mm 2 mps 724 mmHg 92%
    20:00 +2°C° 0 mm 2 mps 724 mmHg 91%
    21:00 +2°C° 0 mm 2 mps 724 mmHg 91%
    22:00 +2°C° 0 mm 2 mps 724 mmHg 91%
    23:00 +1°C° 0 mm 2 mps 724 mmHg 91%

    Day after tomorrow, 28 February, Friday

    Time Temperature Precipitation Wind Pressure Humidity
    00:00 +1°C° 0 mm 2 mps 724 mmHg 92%
    01:00 +1°C° 0 mm 2 mps 724 mmHg 92%
    02:00 +2°C° 0 mm 1 mps 724 mmHg 93%
    03:00 -1°C° 0 mm 2 mps 724 mmHg 93%
    04:00 -1°C° 0 mm 2 mps 724 mmHg 93%
    05:00 -1°C° 0 mm 2 mps 724 mmHg 92%
    06:00 -1°C° 0.1 mm 3 mps 724 mmHg 91%
    07:00 -1°C° 0.1 mm 3 mps 724 mmHg 90%
    08:00 -1°C° 0.1 mm 3 mps 724 mmHg 89%
    09:00 -1°C° 0 mm 4 mps 724 mmHg 85%
    10:00 -1°C° 0 mm 4 mps 725 mmHg 81%
    11:00 0°C° 0 mm 4 mps 725 mmHg 77%
    12:00 0°C° 0 mm 5 mps 725 mmHg 75%
    13:00 0°C° 0 mm 5 mps 726 mmHg 72%
    14:00 +1°C° 0 mm 5 mps 727 mmHg 69%
    15:00 0°C° 0 mm 5 mps 727 mmHg 70%
    16:00 -1°C° 0 mm 5 mps 728 mmHg 71%
    17:00 -1°C° 0 mm 4 mps 728 mmHg 73%
    18:00 -2°C° 0 mm 4 mps 729 mmHg 74%
    19:00 -1°C° 0 mm 3 mps 729 mmHg 76%
    20:00 -2°C° 0 mm 3 mps 730 mmHg 78%
    21:00 -2°C° 0 mm 3 mps 730 mmHg 77%
    22:00 -2°C° 0 mm 3 mps 730 mmHg 77%
    23:00 -2°C° 0 mm 3 mps 731 mmHg 77%

    29 February, Saturday

    Time Temperature Precipitation Wind Pressure Humidity
    00:00 -2°C° 0 mm 3 mps 731 mmHg 77%
    01:00 -2°C° 0 mm 3 mps 731 mmHg 78%
    02:00 -2°C° 0 mm 2 mps 731 mmHg 78%
    03:00 -2°C° 0 mm 2 mps 731 mmHg 78%
    04:00 -2°C° 0 mm 2 mps 731 mmHg 79%
    05:00 -2°C° 0 mm 2 mps 731 mmHg 79%
    06:00 -2°C° 0 mm 2 mps 732 mmHg 78%
    07:00 -1°C° 0 mm 2 mps 732 mmHg 77%
    08:00 -1°C° 0 mm 2 mps 732 mmHg 75%
    09:00 +1°C° 0 mm 2 mps 732 mmHg 71%
    10:00 +1°C° 0 mm 2 mps 732 mmHg 67%
    11:00 +3°C° 0 mm 1 mps 732 mmHg 63%
    12:00 +3°C° 0 mm 1 mps 732 mmHg 61%
    13:00 +4°C° 0 mm 1 mps 732 mmHg 60%
    14:00 +4°C° 0 mm 1 mps 732 mmHg 58%
    15:00 +3°C° 0 mm 1 mps 732 mmHg 65%
    16:00 +2°C° 0 mm 1 mps 733 mmHg 73%
    17:00 +1°C° 0 mm 1 mps 733 mmHg 80%
    18:00 +1°C° 0 mm 1 mps 733 mmHg 82%
    19:00 +1°C° 0 mm 1 mps 734 mmHg 83%
    20:00 +1°C° 0 mm 1 mps 734 mmHg 85%
    21:00 0°C° 0 mm 1 mps 735 mmHg 86%
    22:00 0°C° 0 mm 1 mps 735 mmHg 88%
    23:00 0°C° 0 mm 1 mps 735 mmHg 89%

    1 March, Sunday

    Time Temperature Precipitation Wind Pressure Humidity
    00:00 0°C° 0 mm 1 mps 736 mmHg 89%
    01:00 -3°C° 0 mm 2 mps 736 mmHg 89%
    02:00 -3°C° 0 mm 2 mps 737 mmHg 89%
    03:00 -3°C° 0 mm 2 mps 737 mmHg 88%
    04:00 -3°C° 0 mm 2 mps 738 mmHg 88%
    05:00 -3°C° 0 mm 2 mps 738 mmHg 88%
    06:00 -3°C° 0 mm 2 mps 739 mmHg 84%
    07:00 -3°C° 0 mm 2 mps 739 mmHg 81%
    08:00 0°C° 0 mm 1 mps 740 mmHg 78%
    09:00 +1°C° 0 mm 1 mps 740 mmHg 72%
    10:00 +2°C° 0 mm 1 mps 740 mmHg 66%
    11:00 +3°C° 0 mm 1 mps 740 mmHg 60%
    12:00 +3°C° 0 mm 1 mps 740 mmHg 58%
    13:00 +3°C° 0 mm 2 mps 740 mmHg 57%
    14:00 +3°C° 0 mm 2 mps 740 mmHg 56%
    15:00 +2°C° 0 mm 2 mps 740 mmHg 62%
    16:00 +1°C° 0 mm 2 mps 740 mmHg 68%
    17:00 +1°C° 0 mm 2 mps 741 mmHg 75%
    18:00 -1°C° 0 mm 2 mps 741 mmHg 77%
    19:00 -1°C° 0 mm 3 mps 741 mmHg 80%
    20:00 -2°C° 0 mm 3 mps 741 mmHg 83%
    21:00 -2°C° 0 mm 3 mps 741 mmHg 85%
    22:00 -3°C° 0 mm 4 mps 741 mmHg 88%
    23:00 -3°C° 0 mm 4 mps 741 mmHg 90%

    2 March, Monday

    Time Temperature Precipitation Wind Pressure Humidity
    00:00 -3°C° 0 mm 4 mps 741 mmHg 92%
    01:00 -3°C° 0 mm 4 mps 741 mmHg 93%
    02:00 -4°C° 0 mm 5 mps 741 mmHg 95%
    03:00 -4°C° 0 mm 5 mps 740 mmHg 93%
    04:00 -4°C° 0 mm 5 mps 740 mmHg 92%
    05:00 -4°C° 0 mm 5 mps 740 mmHg 90%
    06:00 -4°C° 0 mm 5 mps 740 mmHg 90%
    07:00 -3°C° 0 mm 6 mps 740 mmHg 89%
    08:00 -3°C° 0 mm 6 mps 740 mmHg 89%
    09:00 -3°C° 0 mm 7 mps 740 mmHg 86%
    10:00 -2°C° 0 mm 7 mps 739 mmHg 83%
    11:00 -2°C° 0 mm 7 mps 739 mmHg 80%
    12:00 -1°C° 0 mm 7 mps 739 mmHg 78%
    13:00 +1°C° 0 mm 6 mps 739 mmHg 75%
    14:00 +1°C° 0 mm 6 mps 738 mmHg 73%
    15:00 +1°C° 0 mm 6 mps 738 mmHg 76%
    16:00 -1°C° 0 mm 6 mps 738 mmHg 79%
    17:00 0°C° 0 mm 5 mps 738 mmHg 82%
    18:00 0°C° 0 mm 5 mps 738 mmHg 83%
    19:00 -1°C° 0 mm 5 mps 738 mmHg 83%
    20:00 -1°C° 0 mm 5 mps 738 mmHg 84%
    21:00 -1°C° 0 mm 5 mps 738 mmHg 84%
    22:00 -1°C° 0 mm 5 mps 738 mmHg 85%
    23:00 -1°C° 0 mm 5 mps 738 mmHg 85%
    Show more